TimeCDT,TemperatureF,Dew PointF,Humidity,Sea Level PressureIn,VisibilityMPH,Wind Direction,Wind SpeedMPH,Gust SpeedMPH,PrecipitationIn,Events,Conditions,WindDirDegrees,DateUTC
12:51 AM,84.0,68.0,58,29.65,10.0,South,18.4,25.3,N/A,,Clear,190,2013-06-01 05:51:00
1:51 AM,82.9,68.0,60,29.65,10.0,South,16.1,25.3,N/A,,Clear,180,2013-06-01 06:51:00
2:51 AM,82.0,69.1,65,29.66,10.0,South,17.3,24.2,N/A,,Clear,180,2013-06-01 07:51:00
3:51 AM,80.1,68.0,67,29.66,10.0,South,15.0,27.6,N/A,,Clear,180,2013-06-01 08:51:00
4:51 AM,78.1,69.1,74,29.66,10.0,South,16.1,24.2,N/A,,Clear,180,2013-06-01 09:51:00
5:51 AM,77.0,71.1,82,29.67,10.0,South,15.0,25.3,N/A,,Clear,190,2013-06-01 10:51:00
6:51 AM,75.9,70.0,82,29.68,10.0,South,16.1,20.7,N/A,,Clear,180,2013-06-01 11:51:00
7:51 AM,77.0,70.0,79,29.73,10.0,SSW,13.8,24.2,N/A,,Partly Cloudy,210,2013-06-01 12:51:00
8:04 AM,77.0,69.8,78,29.81,10.0,SSW,15.0,-,N/A,,Mostly Cloudy,200,2013-06-01 13:04:00
8:51 AM,79.0,70.0,74,29.76,10.0,SSW,13.8,-,N/A,,Overcast,210,2013-06-01 13:51:00
9:51 AM,81.0,70.0,69,29.78,10.0,SSW,11.5,-,N/A,,Mostly Cloudy,210,2013-06-01 14:51:00
10:51 AM,84.0,70.0,63,29.80,10.0,WSW,5.8,-,N/A,,Mostly Cloudy,250,2013-06-01 15:51:00
10:59 AM,84.2,69.8,62,29.89,10.0,West,8.1,-,N/A,,Mostly Cloudy,260,2013-06-01 15:59:00
11:51 AM,86.0,69.1,57,29.82,10.0,West,5.8,-,N/A,,Overcast,280,2013-06-01 16:51:00
12:51 PM,88.0,69.1,53,29.82,10.0,ENE,4.6,-,N/A,,Mostly Cloudy,70,2013-06-01 17:51:00
1:51 PM,89.1,66.9,48,29.81,10.0,Variable,3.5,-,N/A,,Mostly Cloudy,0,2013-06-01 18:51:00
2:51 PM,93.0,66.9,42,29.80,10.0,NNW,8.1,-,N/A,,Clear,340,2013-06-01 19:51:00
3:51 PM,91.9,66.9,44,29.80,10.0,NNE,17.3,-,N/A,,Scattered Clouds,30,2013-06-01 20:51:00
4:51 PM,91.9,64.9,41,29.80,10.0,NNE,16.1,20.7,N/A,,Clear,20,2013-06-01 21:51:00
5:51 PM,91.0,64.0,41,29.80,10.0,NE,18.4,21.9,N/A,,Clear,40,2013-06-01 22:51:00
6:51 PM,90.0,64.9,43,29.81,10.0,NNE,16.1,23.0,N/A,,Clear,20,2013-06-01 23:51:00
7:51 PM,87.1,62.1,43,29.83,10.0,NE,17.3,24.2,N/A,,Clear,40,2013-06-02 00:51:00
8:51 PM,84.9,60.1,43,29.86,10.0,NE,15.0,20.7,N/A,,Overcast,40,2013-06-02 01:51:00
9:51 PM,82.9,59.0,44,29.88,10.0,NE,13.8,-,N/A,,Mostly Cloudy,40,2013-06-02 02:51:00
10:51 PM,81.0,57.0,44,29.91,10.0,NE,15.0,-,N/A,,Clear,40,2013-06-02 03:51:00
11:51 PM,79.0,55.9,45,29.93,10.0,NE,11.5,-,N/A,,Clear,50,2013-06-02 04:51:00